Year,Month,Day,Hour,Minute,Value (Times are PST for temperature in C)
2018,07,21,00,00,16.10
2018,07,21,00,01,16.10
2018,07,21,00,02,16.00
2018,07,21,00,03,16.00
2018,07,21,00,04,15.90
2018,07,21,00,05,15.90
2018,07,21,00,06,15.90
2018,07,21,00,07,15.80
2018,07,21,00,08,15.80
2018,07,21,00,09,15.80
2018,07,21,00,10,15.80
2018,07,21,00,11,15.70
2018,07,21,00,12,15.70
2018,07,21,00,13,15.70
2018,07,21,00,14,15.60
2018,07,21,00,15,15.60
2018,07,21,00,16,15.50
2018,07,21,00,17,15.50
2018,07,21,00,18,15.50
2018,07,21,00,19,15.40
2018,07,21,00,20,15.40
2018,07,21,00,21,15.30
2018,07,21,00,22,15.30
2018,07,21,00,23,15.20
2018,07,21,00,24,15.20
2018,07,21,00,25,15.20
2018,07,21,00,26,15.10
2018,07,21,00,27,15.10
2018,07,21,00,28,15.10
2018,07,21,00,29,15.00
2018,07,21,00,30,15.00
2018,07,21,00,31,14.90
2018,07,21,00,32,14.90
2018,07,21,00,33,14.90
2018,07,21,00,34,14.80
2018,07,21,00,35,14.80
2018,07,21,00,36,14.80
2018,07,21,00,37,14.70
2018,07,21,00,38,14.70
2018,07,21,00,39,14.70
2018,07,21,00,40,14.70
2018,07,21,00,41,14.60
2018,07,21,00,42,14.60
2018,07,21,00,43,14.60
2018,07,21,00,44,14.60
2018,07,21,00,45,14.50
2018,07,21,00,46,14.50
2018,07,21,00,47,14.40
2018,07,21,00,48,14.40
2018,07,21,00,49,14.40
2018,07,21,00,50,14.30
2018,07,21,00,51,14.30
2018,07,21,00,52,14.30
2018,07,21,00,53,14.30
2018,07,21,00,54,14.30
2018,07,21,00,55,14.20
2018,07,21,00,56,14.20
2018,07,21,00,57,14.20
2018,07,21,00,58,14.10
2018,07,21,00,59,14.10
2018,07,21,01,00,14.10
2018,07,21,01,01,14.00
2018,07,21,01,02,14.00
2018,07,21,01,03,13.90
2018,07,21,01,04,13.90
2018,07,21,01,05,13.90
2018,07,21,01,06,13.80
2018,07,21,01,07,13.80
2018,07,21,01,08,13.80
2018,07,21,01,09,13.80
2018,07,21,01,10,13.70
2018,07,21,01,11,13.70
2018,07,21,01,12,13.70
2018,07,21,01,13,13.70
2018,07,21,01,14,13.60
2018,07,21,01,15,13.60
2018,07,21,01,16,13.50
2018,07,21,01,17,13.50
2018,07,21,01,18,13.40
2018,07,21,01,19,13.40
2018,07,21,01,20,13.40
2018,07,21,01,21,13.30
2018,07,21,01,22,13.30
2018,07,21,01,23,13.30
2018,07,21,01,24,13.30
2018,07,21,01,25,13.30
2018,07,21,01,26,13.20
2018,07,21,01,27,13.20
2018,07,21,01,28,13.20
2018,07,21,01,29,13.20
2018,07,21,01,30,13.10
2018,07,21,01,31,13.10
2018,07,21,01,32,13.10
2018,07,21,01,33,13.10
2018,07,21,01,34,13.00
2018,07,21,01,35,13.00
2018,07,21,01,36,13.00
2018,07,21,01,37,13.00
2018,07,21,01,38,12.90
2018,07,21,01,39,12.90
2018,07,21,01,40,12.90
2018,07,21,01,41,12.90
2018,07,21,01,42,12.90
2018,07,21,01,43,12.80
2018,07,21,01,44,12.80
2018,07,21,01,45,12.80
2018,07,21,01,46,12.80
2018,07,21,01,47,12.70
2018,07,21,01,48,12.70
2018,07,21,01,49,12.70
2018,07,21,01,50,12.60
2018,07,21,01,51,12.60
2018,07,21,01,52,12.60
2018,07,21,01,53,12.60
2018,07,21,01,54,12.50
2018,07,21,01,55,12.50
2018,07,21,01,56,12.50
2018,07,21,01,57,12.50
2018,07,21,01,58,12.40
2018,07,21,01,59,12.40
2018,07,21,02,00,12.40
2018,07,21,02,01,12.40
2018,07,21,02,02,12.30
2018,07,21,02,03,12.30
2018,07,21,02,04,12.30
2018,07,21,02,05,12.30
2018,07,21,02,06,12.20
2018,07,21,02,07,12.20
2018,07,21,02,08,12.20
2018,07,21,02,09,12.20
2018,07,21,02,10,12.20
2018,07,21,02,11,12.10
2018,07,21,02,12,12.10
2018,07,21,02,13,12.10
2018,07,21,02,14,12.10
2018,07,21,02,15,12.10
2018,07,21,02,16,12.10
2018,07,21,02,17,12.10
2018,07,21,02,18,12.10
2018,07,21,02,19,12.10
2018,07,21,02,20,12.10
2018,07,21,02,21,12.10
2018,07,21,02,22,12.00
2018,07,21,02,23,12.00
2018,07,21,02,24,12.10
2018,07,21,02,25,12.10
2018,07,21,02,26,12.10
2018,07,21,02,27,12.00
2018,07,21,02,28,12.00
2018,07,21,02,29,12.00
2018,07,21,02,30,12.00
2018,07,21,02,31,12.00
2018,07,21,02,32,12.00
2018,07,21,02,33,12.00
2018,07,21,02,34,12.00
2018,07,21,02,35,12.00
2018,07,21,02,36,12.00
2018,07,21,02,37,12.00
2018,07,21,02,38,12.00
2018,07,21,02,39,11.90
2018,07,21,02,40,11.90
2018,07,21,02,41,11.90
2018,07,21,02,42,11.90
2018,07,21,02,43,11.90
2018,07,21,02,44,11.80
2018,07,21,02,45,11.80
2018,07,21,02,46,11.80
2018,07,21,02,47,11.80
2018,07,21,02,48,11.70
2018,07,21,02,49,11.70
2018,07,21,02,50,11.70
2018,07,21,02,51,11.70
2018,07,21,02,52,11.70
2018,07,21,02,53,11.70
2018,07,21,02,54,11.60
2018,07,21,02,55,11.60
2018,07,21,02,56,11.60
2018,07,21,02,57,11.60
2018,07,21,02,58,11.50
2018,07,21,02,59,11.50
2018,07,21,03,00,11.50
2018,07,21,03,01,11.50
2018,07,21,03,02,11.50
2018,07,21,03,03,11.40
2018,07,21,03,04,11.40
2018,07,21,03,05,11.40
2018,07,21,03,06,11.40
2018,07,21,03,07,11.40
2018,07,21,03,08,11.30
2018,07,21,03,09,11.30
2018,07,21,03,10,11.30
2018,07,21,03,11,11.30
2018,07,21,03,12,11.30
2018,07,21,03,13,11.20
2018,07,21,03,14,11.20
2018,07,21,03,15,11.20
2018,07,21,03,16,11.20
2018,07,21,03,17,11.20
2018,07,21,03,18,11.20
2018,07,21,03,19,11.10
2018,07,21,03,20,11.10
2018,07,21,03,21,11.10
2018,07,21,03,22,11.10
2018,07,21,03,23,11.10
2018,07,21,03,24,11.10
2018,07,21,03,25,11.00
2018,07,21,03,26,11.00
2018,07,21,03,27,11.00
2018,07,21,03,28,10.90
2018,07,21,03,29,10.90
2018,07,21,03,30,10.90
2018,07,21,03,31,10.90
2018,07,21,03,32,10.80
2018,07,21,03,33,10.80
2018,07,21,03,34,10.80
2018,07,21,03,35,10.80
2018,07,21,03,36,10.80
2018,07,21,03,37,10.80
2018,07,21,03,38,10.80
2018,07,21,03,39,10.70
2018,07,21,03,40,10.70
2018,07,21,03,41,10.70
2018,07,21,03,42,10.70
2018,07,21,03,43,10.70
2018,07,21,03,44,10.70
2018,07,21,03,45,10.70
2018,07,21,03,46,10.60
2018,07,21,03,47,10.60
2018,07,21,03,48,10.60
2018,07,21,03,49,10.60
2018,07,21,03,50,10.60
2018,07,21,03,51,10.60
2018,07,21,03,52,10.60
2018,07,21,03,53,10.60
2018,07,21,03,54,10.50
2018,07,21,03,55,10.50
2018,07,21,03,56,10.50
2018,07,21,03,57,10.50
2018,07,21,03,58,10.50
2018,07,21,03,59,10.40
2018,07,21,04,00,10.40
2018,07,21,04,01,10.40
2018,07,21,04,02,10.40
2018,07,21,04,03,10.40
2018,07,21,04,04,10.40
2018,07,21,04,05,10.40
2018,07,21,04,06,10.40
2018,07,21,04,07,10.40
2018,07,21,04,08,10.40
2018,07,21,04,09,10.40
2018,07,21,04,10,10.40
2018,07,21,04,11,10.40
2018,07,21,04,12,10.50
2018,07,21,04,13,10.50
2018,07,21,04,14,10.50
2018,07,21,04,15,10.50
2018,07,21,04,16,10.50
2018,07,21,04,17,10.50
2018,07,21,04,18,10.50
2018,07,21,04,19,10.50
2018,07,21,04,20,10.50
2018,07,21,04,21,10.50
2018,07,21,04,22,10.50
2018,07,21,04,23,10.50
2018,07,21,04,24,10.50
2018,07,21,04,25,10.40
2018,07,21,04,26,10.40
2018,07,21,04,27,10.40
2018,07,21,04,28,10.40
2018,07,21,04,29,10.40
2018,07,21,04,30,10.40
2018,07,21,04,31,10.40
2018,07,21,04,32,10.40
2018,07,21,04,33,10.40
2018,07,21,04,34,10.40
2018,07,21,04,35,10.40
2018,07,21,04,36,10.40
2018,07,21,04,37,10.40
2018,07,21,04,38,10.40
2018,07,21,04,39,10.40
2018,07,21,04,40,10.30
2018,07,21,04,41,10.30
2018,07,21,04,42,10.30
2018,07,21,04,43,10.40
2018,07,21,04,44,10.40
2018,07,21,04,45,10.40
2018,07,21,04,46,10.40
2018,07,21,04,47,10.40
2018,07,21,04,48,10.40
2018,07,21,04,49,10.40
2018,07,21,04,50,10.40
2018,07,21,04,51,10.50
2018,07,21,04,52,10.50
2018,07,21,04,53,10.50
2018,07,21,04,54,10.50
2018,07,21,04,55,10.50
2018,07,21,04,56,10.50
2018,07,21,04,57,10.60
2018,07,21,04,58,10.60
2018,07,21,04,59,10.60
2018,07,21,05,00,10.60
2018,07,21,05,01,10.60
2018,07,21,05,02,10.60
2018,07,21,05,03,10.60
2018,07,21,05,04,10.60
2018,07,21,05,05,10.60
2018,07,21,05,06,10.60
2018,07,21,05,07,10.60
2018,07,21,05,08,10.60
2018,07,21,05,09,10.50
2018,07,21,05,10,10.50
2018,07,21,05,11,10.50
2018,07,21,05,12,10.50
2018,07,21,05,13,10.50
2018,07,21,05,14,10.50
2018,07,21,05,15,10.50
2018,07,21,05,16,10.50
2018,07,21,05,17,10.40
2018,07,21,05,18,10.40
2018,07,21,05,19,10.40
2018,07,21,05,20,10.40
2018,07,21,05,21,10.40
2018,07,21,05,22,10.40
2018,07,21,05,23,10.40
2018,07,21,05,24,10.50
2018,07,21,05,25,10.50
2018,07,21,05,26,10.50
2018,07,21,05,27,10.50
2018,07,21,05,28,10.50
2018,07,21,05,29,10.50
2018,07,21,05,30,10.50
2018,07,21,05,31,10.50
2018,07,21,05,32,10.50
2018,07,21,05,33,10.50
2018,07,21,05,34,10.50
2018,07,21,05,35,10.50
2018,07,21,05,36,10.50
2018,07,21,05,37,10.50
2018,07,21,05,38,10.50
2018,07,21,05,39,10.50
2018,07,21,05,40,10.50
2018,07,21,05,41,10.50
2018,07,21,05,42,10.50
2018,07,21,05,43,10.40
2018,07,21,05,44,10.40
2018,07,21,05,45,10.40
2018,07,21,05,46,10.40
2018,07,21,05,47,10.40
2018,07,21,05,48,10.40
2018,07,21,05,49,10.40
2018,07,21,05,50,10.40
2018,07,21,05,51,10.40
2018,07,21,05,52,10.40
2018,07,21,05,53,10.40
2018,07,21,05,54,10.40
2018,07,21,05,55,10.40
2018,07,21,05,56,10.40
2018,07,21,05,57,10.40
2018,07,21,05,58,10.40
2018,07,21,05,59,10.40
2018,07,21,06,00,10.40
2018,07,21,06,01,10.40
2018,07,21,06,02,10.40
2018,07,21,06,03,10.40
2018,07,21,06,04,10.40
2018,07,21,06,05,10.40
2018,07,21,06,06,10.40
2018,07,21,06,07,10.40
2018,07,21,06,08,10.40
2018,07,21,06,09,10.40
2018,07,21,06,10,10.40
2018,07,21,06,11,10.40
2018,07,21,06,12,10.40
2018,07,21,06,13,10.40
2018,07,21,06,14,10.40
2018,07,21,06,15,10.40
2018,07,21,06,16,10.40
2018,07,21,06,17,10.40
2018,07,21,06,18,10.40
2018,07,21,06,19,10.40
2018,07,21,06,20,10.40
2018,07,21,06,21,10.50
2018,07,21,06,22,10.50
2018,07,21,06,23,10.50
2018,07,21,06,24,10.50
2018,07,21,06,25,10.50
2018,07,21,06,26,10.50
2018,07,21,06,27,10.50
2018,07,21,06,28,10.60
2018,07,21,06,29,10.60
2018,07,21,06,30,10.60
2018,07,21,06,31,10.60
2018,07,21,06,32,10.60
2018,07,21,06,33,10.60
2018,07,21,06,34,10.60
2018,07,21,06,35,10.60
2018,07,21,06,36,10.60
2018,07,21,06,37,10.60
2018,07,21,06,38,10.60
2018,07,21,06,39,10.60
2018,07,21,06,40,10.60
2018,07,21,06,41,10.60
2018,07,21,06,42,10.60
2018,07,21,06,43,10.60
2018,07,21,06,44,10.70
2018,07,21,06,45,10.70
2018,07,21,06,46,10.70
2018,07,21,06,47,10.70
2018,07,21,06,48,10.70
2018,07,21,06,49,10.70
2018,07,21,06,50,10.70
2018,07,21,06,51,10.80
2018,07,21,06,52,10.80
2018,07,21,06,53,10.80
2018,07,21,06,54,10.80
2018,07,21,06,55,10.80
2018,07,21,06,56,10.80
2018,07,21,06,57,10.80
2018,07,21,06,58,10.90
2018,07,21,06,59,10.90
2018,07,21,07,00,10.90
2018,07,21,07,01,10.90
2018,07,21,07,02,10.90
2018,07,21,07,03,10.90
2018,07,21,07,04,11.00
2018,07,21,07,05,11.00
2018,07,21,07,06,11.00
2018,07,21,07,07,11.00
2018,07,21,07,08,11.00
2018,07,21,07,09,11.10
2018,07,21,07,10,11.10
2018,07,21,07,11,11.10
2018,07,21,07,12,11.10
2018,07,21,07,13,11.10
2018,07,21,07,14,11.20
2018,07,21,07,15,11.20
2018,07,21,07,16,11.20
2018,07,21,07,17,11.20
2018,07,21,07,18,11.20
2018,07,21,07,19,11.20
2018,07,21,07,20,11.20
2018,07,21,07,21,11.20
2018,07,21,07,22,11.20
2018,07,21,07,23,11.30
2018,07,21,07,24,11.30
2018,07,21,07,25,11.30
2018,07,21,07,26,11.30
2018,07,21,07,27,11.30
2018,07,21,07,28,11.30
2018,07,21,07,29,11.30
2018,07,21,07,30,11.30
2018,07,21,07,31,11.30
2018,07,21,07,32,11.30
2018,07,21,07,33,11.30
2018,07,21,07,34,11.30
2018,07,21,07,35,11.30
2018,07,21,07,36,11.30
2018,07,21,07,37,11.40
2018,07,21,07,38,11.40
2018,07,21,07,39,11.40
2018,07,21,07,40,11.40
2018,07,21,07,41,11.40
2018,07,21,07,42,11.40
2018,07,21,07,43,11.40
2018,07,21,07,44,11.50
2018,07,21,07,45,11.50
2018,07,21,07,46,11.50
2018,07,21,07,47,11.50
2018,07,21,07,48,11.50
2018,07,21,07,49,11.60
2018,07,21,07,50,11.60
2018,07,21,07,51,11.60
2018,07,21,07,52,11.70
2018,07,21,07,53,11.70
2018,07,21,07,54,11.70
2018,07,21,07,55,11.70
2018,07,21,07,56,11.80
2018,07,21,07,57,11.80
2018,07,21,07,58,11.80
2018,07,21,07,59,11.80
2018,07,21,08,00,11.80
2018,07,21,08,01,11.90
2018,07,21,08,02,11.90
2018,07,21,08,03,11.90
2018,07,21,08,04,11.90
2018,07,21,08,05,12.00
2018,07,21,08,06,12.00
2018,07,21,08,07,12.00
2018,07,21,08,08,12.00
2018,07,21,08,09,12.10
2018,07,21,08,10,12.10
2018,07,21,08,11,12.10
2018,07,21,08,12,12.10
2018,07,21,08,13,12.10
2018,07,21,08,14,12.10
2018,07,21,08,15,12.10
2018,07,21,08,16,12.20
2018,07,21,08,17,12.20
2018,07,21,08,18,12.20
2018,07,21,08,19,12.20
2018,07,21,08,20,12.20
2018,07,21,08,21,12.30
2018,07,21,08,22,12.30
2018,07,21,08,23,12.30
2018,07,21,08,24,12.30
2018,07,21,08,25,12.30
2018,07,21,08,26,12.30
2018,07,21,08,27,12.30
2018,07,21,08,28,12.30
2018,07,21,08,29,12.40
2018,07,21,08,30,12.40
2018,07,21,08,31,12.40
2018,07,21,08,32,12.40
2018,07,21,08,33,12.40
2018,07,21,08,34,12.40
2018,07,21,08,35,12.40
2018,07,21,08,36,12.50
2018,07,21,08,37,12.50
2018,07,21,08,38,12.50
2018,07,21,08,39,12.50
2018,07,21,08,40,12.50
2018,07,21,08,41,12.50
2018,07,21,08,42,12.50
2018,07,21,08,43,12.50
2018,07,21,08,44,12.60
2018,07,21,08,45,12.60
2018,07,21,08,46,12.60
2018,07,21,08,47,12.60
2018,07,21,08,48,12.60
2018,07,21,08,49,12.60
2018,07,21,08,50,12.60
2018,07,21,08,51,12.60
2018,07,21,08,52,12.60
2018,07,21,08,53,12.70
2018,07,21,08,54,12.70
2018,07,21,08,55,12.70
2018,07,21,08,56,12.70
2018,07,21,08,57,12.80
2018,07,21,08,58,12.80
2018,07,21,08,59,12.80
2018,07,21,09,00,12.80
2018,07,21,09,01,12.80
2018,07,21,09,02,12.90
2018,07,21,09,03,12.90
2018,07,21,09,04,12.90
2018,07,21,09,05,12.90
2018,07,21,09,06,12.90
2018,07,21,09,07,12.90
2018,07,21,09,08,13.00
2018,07,21,09,09,13.00
2018,07,21,09,10,13.00
2018,07,21,09,11,13.10
2018,07,21,09,12,13.10
2018,07,21,09,13,13.10
2018,07,21,09,14,13.10
2018,07,21,09,15,13.20
2018,07,21,09,16,13.20
2018,07,21,09,17,13.20
2018,07,21,09,18,13.30
2018,07,21,09,19,13.30
2018,07,21,09,20,13.30
2018,07,21,09,21,13.40
2018,07,21,09,22,13.40
2018,07,21,09,23,13.40
2018,07,21,09,24,13.50
2018,07,21,09,25,13.50
2018,07,21,09,26,13.60
2018,07,21,09,27,13.60
2018,07,21,09,28,13.70
2018,07,21,09,29,13.80
2018,07,21,09,30,13.90
2018,07,21,09,31,14.00
2018,07,21,09,32,14.10
2018,07,21,09,33,14.10
2018,07,21,09,34,14.20
2018,07,21,09,35,14.30
2018,07,21,09,36,14.30
2018,07,21,09,37,14.40
2018,07,21,09,38,14.40
2018,07,21,09,39,14.50
2018,07,21,09,40,14.50
2018,07,21,09,41,14.60
2018,07,21,09,42,14.70
2018,07,21,09,43,14.70
2018,07,21,09,44,14.80
2018,07,21,09,45,14.90
2018,07,21,09,46,15.00
2018,07,21,09,47,15.10
2018,07,21,09,48,15.20
2018,07,21,09,49,15.20
2018,07,21,09,50,15.30
2018,07,21,09,51,15.30
2018,07,21,09,52,15.30
2018,07,21,09,53,15.30
2018,07,21,09,54,15.30
2018,07,21,09,55,15.30
2018,07,21,09,56,15.30
2018,07,21,09,57,15.30
2018,07,21,09,58,15.30
2018,07,21,09,59,15.30
2018,07,21,10,00,15.30
2018,07,21,10,01,15.40
2018,07,21,10,02,15.40
2018,07,21,10,03,15.30
2018,07,21,10,04,15.30
2018,07,21,10,05,15.30
2018,07,21,10,06,15.30
2018,07,21,10,07,15.30
2018,07,21,10,08,15.20
2018,07,21,10,09,15.20
2018,07,21,10,10,15.20
2018,07,21,10,11,15.20
2018,07,21,10,12,15.20
2018,07,21,10,13,15.20
2018,07,21,10,14,15.20
2018,07,21,10,15,15.20
2018,07,21,10,16,15.10
2018,07,21,10,17,15.10
2018,07,21,10,18,15.10
2018,07,21,10,19,15.10
2018,07,21,10,20,15.10
2018,07,21,10,21,15.10
2018,07,21,10,22,15.10
2018,07,21,10,23,15.20
2018,07,21,10,24,15.30
2018,07,21,10,25,15.30
2018,07,21,10,26,15.40
2018,07,21,10,27,15.50
2018,07,21,10,28,15.60
2018,07,21,10,29,15.60
2018,07,21,10,30,15.70
2018,07,21,10,31,15.80
2018,07,21,10,32,15.90
2018,07,21,10,33,15.90
2018,07,21,10,34,16.00
2018,07,21,10,35,16.10
2018,07,21,10,36,16.20
2018,07,21,10,37,16.30
2018,07,21,10,38,16.40
2018,07,21,10,39,16.40
2018,07,21,10,40,16.50
2018,07,21,10,41,16.60
2018,07,21,10,42,16.60
2018,07,21,10,43,16.70
2018,07,21,10,44,16.80
2018,07,21,10,45,16.90
2018,07,21,10,46,17.00
2018,07,21,10,47,17.10
2018,07,21,10,48,17.20
2018,07,21,10,49,17.20
2018,07,21,10,50,17.30
2018,07,21,10,51,17.40
2018,07,21,10,52,17.40
2018,07,21,10,53,17.50
2018,07,21,10,54,17.50
2018,07,21,10,55,17.60
2018,07,21,10,56,17.60
2018,07,21,10,57,17.70
2018,07,21,10,58,17.70
2018,07,21,10,59,17.80
2018,07,21,11,00,17.90
2018,07,21,11,01,17.90
2018,07,21,11,02,18.00
2018,07,21,11,03,18.10
2018,07,21,11,04,18.20
2018,07,21,11,05,18.30
2018,07,21,11,06,18.40
2018,07,21,11,07,18.50
2018,07,21,11,08,18.60
2018,07,21,11,09,18.60
2018,07,21,11,10,18.70
2018,07,21,11,11,18.80
2018,07,21,11,12,18.90
2018,07,21,11,13,18.90
2018,07,21,11,14,19.00
2018,07,21,11,15,19.10
2018,07,21,11,16,19.10
2018,07,21,11,17,19.20
2018,07,21,11,18,19.20
2018,07,21,11,19,19.20
2018,07,21,11,20,19.30
2018,07,21,11,21,19.30
2018,07,21,11,22,19.30
2018,07,21,11,23,19.20
2018,07,21,11,24,19.30
2018,07,21,11,25,19.30
2018,07,21,11,26,19.40
2018,07,21,11,27,19.40
2018,07,21,11,28,19.50
2018,07,21,11,29,19.50
2018,07,21,11,30,19.60
2018,07,21,11,31,19.60
2018,07,21,11,32,19.70
2018,07,21,11,33,19.70
2018,07,21,11,34,19.70
2018,07,21,11,35,19.80
2018,07,21,11,36,19.80
2018,07,21,11,37,19.80
2018,07,21,11,38,19.80
2018,07,21,11,39,19.90
2018,07,21,11,40,19.90
2018,07,21,11,41,20.00
2018,07,21,11,42,20.20
2018,07,21,11,43,20.30
2018,07,21,11,44,20.40
2018,07,21,11,45,20.50
2018,07,21,11,46,20.70
2018,07,21,11,47,20.70
2018,07,21,11,48,20.80
2018,07,21,11,49,20.80
2018,07,21,11,50,20.90
2018,07,21,11,51,20.90
2018,07,21,11,52,21.00
2018,07,21,11,53,21.10
2018,07,21,11,54,21.10
2018,07,21,11,55,21.10
2018,07,21,11,56,21.20
2018,07,21,11,57,21.20
2018,07,21,11,58,21.30
2018,07,21,11,59,21.30
2018,07,21,12,00,21.40
2018,07,21,12,01,21.40
2018,07,21,12,02,21.50
2018,07,21,12,03,21.50
2018,07,21,12,04,21.50
2018,07,21,12,05,21.60
2018,07,21,12,06,21.60
2018,07,21,12,07,21.60
2018,07,21,12,08,21.60
2018,07,21,12,09,21.60
2018,07,21,12,10,21.60
2018,07,21,12,11,21.60
2018,07,21,12,12,21.60
2018,07,21,12,13,21.60
2018,07,21,12,14,21.60
2018,07,21,12,15,21.60
2018,07,21,12,16,21.70
2018,07,21,12,17,21.70
2018,07,21,12,18,21.70
2018,07,21,12,19,21.70
2018,07,21,12,20,21.80
2018,07,21,12,21,21.80
2018,07,21,12,22,21.80
2018,07,21,12,23,21.80
2018,07,21,12,24,21.80
2018,07,21,12,25,21.80
2018,07,21,12,26,21.80
2018,07,21,12,27,21.80
2018,07,21,12,28,21.80
2018,07,21,12,29,21.80
2018,07,21,12,30,21.80
2018,07,21,12,31,21.80
2018,07,21,12,32,21.80
2018,07,21,12,33,21.90
2018,07,21,12,34,21.90
2018,07,21,12,35,22.00
2018,07,21,12,36,22.00
2018,07,21,12,37,22.10
2018,07,21,12,38,22.20
2018,07,21,12,39,22.20
2018,07,21,12,40,22.30
2018,07,21,12,41,22.30
2018,07,21,12,42,22.40
2018,07,21,12,43,22.50
2018,07,21,12,44,22.50
2018,07,21,12,45,22.60
2018,07,21,12,46,22.70
2018,07,21,12,47,22.80
2018,07,21,12,48,22.90
2018,07,21,12,49,23.00
2018,07,21,12,50,23.00
2018,07,21,12,51,23.10
2018,07,21,12,52,23.20
2018,07,21,12,53,23.30
2018,07,21,12,54,23.30
2018,07,21,12,55,23.40
2018,07,21,12,56,23.40
2018,07,21,12,57,23.40
2018,07,21,12,58,23.30
2018,07,21,12,59,23.30
2018,07,21,13,00,23.30
2018,07,21,13,01,23.30
2018,07,21,13,02,23.30
2018,07,21,13,03,23.20
2018,07,21,13,04,23.20
2018,07,21,13,05,23.20
2018,07,21,13,06,23.20
2018,07,21,13,07,23.20
2018,07,21,13,08,23.20
2018,07,21,13,09,23.20
2018,07,21,13,10,23.20
2018,07,21,13,11,23.30
2018,07,21,13,12,23.30
2018,07,21,13,13,23.30
2018,07,21,13,14,23.40
2018,07,21,13,15,23.40
2018,07,21,13,16,23.40
2018,07,21,13,17,23.40
2018,07,21,13,18,23.40
2018,07,21,13,19,23.50
2018,07,21,13,20,23.60
2018,07,21,13,21,23.70
2018,07,21,13,22,23.70
2018,07,21,13,23,23.70
2018,07,21,13,24,23.60
2018,07,21,13,25,23.60
2018,07,21,13,26,23.60
2018,07,21,13,27,23.70
2018,07,21,13,28,23.70
2018,07,21,13,29,23.60
2018,07,21,13,30,23.60
2018,07,21,13,31,23.60
2018,07,21,13,32,23.60
2018,07,21,13,33,23.60
2018,07,21,13,34,23.50
2018,07,21,13,35,23.50
2018,07,21,13,36,23.40
2018,07,21,13,37,23.40
2018,07,21,13,38,23.40
2018,07,21,13,39,23.40
2018,07,21,13,40,23.40
2018,07,21,13,41,23.40
2018,07,21,13,42,23.50
2018,07,21,13,43,23.50
2018,07,21,13,44,23.60
2018,07,21,13,45,23.60
2018,07,21,13,46,23.70
2018,07,21,13,47,23.70
2018,07,21,13,48,23.70
2018,07,21,13,49,23.80
2018,07,21,13,50,23.90
2018,07,21,13,51,24.00
2018,07,21,13,52,24.00
2018,07,21,13,53,24.00
2018,07,21,13,54,24.00
2018,07,21,13,55,23.90
2018,07,21,13,56,23.90
2018,07,21,13,57,23.90
2018,07,21,13,58,23.90
2018,07,21,13,59,23.90
2018,07,21,14,00,23.90
2018,07,21,14,01,23.90
2018,07,21,14,02,24.00
2018,07,21,14,03,24.10
2018,07,21,14,04,24.10
2018,07,21,14,05,24.10
2018,07,21,14,06,24.10
2018,07,21,14,07,24.10
2018,07,21,14,08,24.10
2018,07,21,14,09,24.00
2018,07,21,14,10,24.00
2018,07,21,14,11,24.00
2018,07,21,14,12,24.10
2018,07,21,14,13,24.10
2018,07,21,14,14,24.10
2018,07,21,14,15,24.10
2018,07,21,14,16,24.20
2018,07,21,14,17,24.20
2018,07,21,14,18,24.30
2018,07,21,14,19,24.30
2018,07,21,14,20,24.40
2018,07,21,14,21,24.40
2018,07,21,14,22,24.50
2018,07,21,14,23,24.50
2018,07,21,14,24,24.40
2018,07,21,14,25,24.40
2018,07,21,14,26,24.30
2018,07,21,14,27,24.30
2018,07,21,14,28,24.20
2018,07,21,14,29,24.20
2018,07,21,14,30,24.20
2018,07,21,14,31,24.20
2018,07,21,14,32,24.20
2018,07,21,14,33,24.20
2018,07,21,14,34,24.10
2018,07,21,14,35,24.10
2018,07,21,14,36,24.10
2018,07,21,14,37,24.10
2018,07,21,14,38,24.10
2018,07,21,14,39,24.10
2018,07,21,14,40,24.10
2018,07,21,14,41,24.20
2018,07,21,14,42,24.20
2018,07,21,14,43,24.30
2018,07,21,14,44,24.30
2018,07,21,14,45,24.40
2018,07,21,14,46,24.60
2018,07,21,14,47,24.60
2018,07,21,14,48,24.70
2018,07,21,14,49,24.70
2018,07,21,14,50,24.70
2018,07,21,14,51,24.70
2018,07,21,14,52,24.70
2018,07,21,14,53,24.70
2018,07,21,14,54,24.80
2018,07,21,14,55,24.80
2018,07,21,14,56,24.80
2018,07,21,14,57,24.80
2018,07,21,14,58,24.80
2018,07,21,14,59,24.80
2018,07,21,15,00,24.80
2018,07,21,15,01,24.80
2018,07,21,15,02,24.80
2018,07,21,15,03,24.70
2018,07,21,15,04,24.70
2018,07,21,15,05,24.60
2018,07,21,15,06,24.60
2018,07,21,15,07,24.60
2018,07,21,15,08,24.70
2018,07,21,15,09,24.70
2018,07,21,15,10,24.70
2018,07,21,15,11,24.70
2018,07,21,15,12,24.80
2018,07,21,15,13,24.80
2018,07,21,15,14,24.90
2018,07,21,15,15,24.90
2018,07,21,15,16,25.00
2018,07,21,15,17,25.10
2018,07,21,15,18,25.10
2018,07,21,15,19,25.10
2018,07,21,15,20,25.10
2018,07,21,15,21,25.20
2018,07,21,15,22,25.10
2018,07,21,15,23,25.10
2018,07,21,15,24,25.10
2018,07,21,15,25,25.10
2018,07,21,15,26,25.10
2018,07,21,15,27,25.00
2018,07,21,15,28,25.00
2018,07,21,15,29,24.90
2018,07,21,15,30,24.80
2018,07,21,15,31,24.80
2018,07,21,15,32,24.80
2018,07,21,15,33,24.90
2018,07,21,15,34,24.90
2018,07,21,15,35,24.90
2018,07,21,15,36,25.00
2018,07,21,15,37,25.00
2018,07,21,15,38,25.00
2018,07,21,15,39,25.00
2018,07,21,15,40,25.00
2018,07,21,15,41,25.00
2018,07,21,15,42,25.00
2018,07,21,15,43,25.10
2018,07,21,15,44,25.10
2018,07,21,15,45,25.10
2018,07,21,15,46,25.10
2018,07,21,15,47,25.20
2018,07,21,15,48,25.20
2018,07,21,15,49,25.20
2018,07,21,15,50,25.20
2018,07,21,15,51,25.20
2018,07,21,15,52,25.30
2018,07,21,15,53,25.30
2018,07,21,15,54,25.30
2018,07,21,15,55,25.30
2018,07,21,15,56,25.30
2018,07,21,15,57,25.30
2018,07,21,15,58,25.30
2018,07,21,15,59,25.30
2018,07,21,16,00,25.30
2018,07,21,16,01,25.20
2018,07,21,16,02,25.20
2018,07,21,16,03,25.20
2018,07,21,16,04,25.20
2018,07,21,16,05,25.20
2018,07,21,16,06,25.30
2018,07,21,16,07,25.30
2018,07,21,16,08,25.30
2018,07,21,16,09,25.30
2018,07,21,16,10,25.30
2018,07,21,16,11,25.30
2018,07,21,16,12,25.30
2018,07,21,16,13,25.30
2018,07,21,16,14,25.30
2018,07,21,16,15,25.30
2018,07,21,16,16,25.30
2018,07,21,16,17,25.30
2018,07,21,16,18,25.20
2018,07,21,16,19,25.20
2018,07,21,16,20,25.20
2018,07,21,16,21,25.20
2018,07,21,16,22,25.20
2018,07,21,16,23,25.30
2018,07,21,16,24,25.30
2018,07,21,16,25,25.30
2018,07,21,16,26,25.30
2018,07,21,16,27,25.30
2018,07,21,16,28,25.30
2018,07,21,16,29,25.30
2018,07,21,16,30,25.30
2018,07,21,16,31,25.30
2018,07,21,16,32,25.30
2018,07,21,16,33,25.30
2018,07,21,16,34,25.30
2018,07,21,16,35,25.30
2018,07,21,16,36,25.40
2018,07,21,16,37,25.40
2018,07,21,16,38,25.40
2018,07,21,16,39,25.50
2018,07,21,16,40,25.60
2018,07,21,16,41,25.60
2018,07,21,16,42,25.70
2018,07,21,16,43,25.60
2018,07,21,16,44,25.60
2018,07,21,16,45,25.60
2018,07,21,16,46,25.50
2018,07,21,16,47,25.50
2018,07,21,16,48,25.50
2018,07,21,16,49,25.50
2018,07,21,16,50,25.50
2018,07,21,16,51,25.50
2018,07,21,16,52,25.60
2018,07,21,16,53,25.60
2018,07,21,16,54,25.60
2018,07,21,16,55,25.70
2018,07,21,16,56,25.70
2018,07,21,16,57,25.80
2018,07,21,16,58,25.80
2018,07,21,16,59,25.90
2018,07,21,17,00,25.90
2018,07,21,17,01,25.90
2018,07,21,17,02,25.90
2018,07,21,17,03,25.80
2018,07,21,17,04,25.80
2018,07,21,17,05,25.80
2018,07,21,17,06,25.80
2018,07,21,17,07,25.80
2018,07,21,17,08,25.80
2018,07,21,17,09,25.80
2018,07,21,17,10,25.80
2018,07,21,17,11,25.80
2018,07,21,17,12,25.80
2018,07,21,17,13,25.90
2018,07,21,17,14,25.90
2018,07,21,17,15,25.90
2018,07,21,17,16,25.90
2018,07,21,17,17,25.90
2018,07,21,17,18,25.90
2018,07,21,17,19,25.90